Weather History for Watford City, ND

Change the Weather History Date:

Wednesday, May 29, 2013

  Actual Average (KISN) Record (KISN)
Temperature  
Mean Temperature 58 °F 58 °F  
Max Temperature 69 °F 71 °F 99 °F (1988)
Min Temperature 46 °F 45 °F 26 °F (1947)
Degree Days  
Heating Degree Days 8 8  
Month to date heating degree days 335  
Since 1 July heating degree days 8860  
Cooling Degree Days 0 1  
Month to date cooling degree days 5  
Year to date cooling degree days 6  
Growing Degree Days 8 (Base 50)    
Moisture  
Dew Point 53 °F    
Average Humidity 82    
Maximum Humidity 100    
Minimum Humidity 56    
Precipitation  
Precipitation 0.00 in 0.07 in 1.44 in (1929)
Month to date precipitation 1.76  
Year to date precipitation 4.45  
Sea Level Pressure  
Sea Level Pressure 29.65 in    
Wind  
Wind Speed 5 mph (ENE)    
Max Wind Speed 17 mph    
Max Gust Speed 21 mph    
Visibility 8 miles    
Events Fog    
T = Trace of Precipitation, MM = Missing Value Source: NWS Daily Summary

Daily Weather History Graph

Daily Weather History Graph

Search for Another Location

Airport:

Trip Planner

Search our weather history database for the weather conditions in past years. The results will help you decide how hot, cold, wet, or windy it might be!

Date:

Astronomy

May. 29, 2013 Rise Set
Actual Time 6:00 AM CDT 9:41 PM CDT
Civil Twilight 5:21 AM CDT 10:20 PM CDT
Nautical Twilight 4:28 AM CDT 11:13 PM CDT
Astronomical Twilight 3:14 AM CDT 12:28 AM CDT
Moon 12:54 AM CDT (5/29) 11:14 AM CDT (5/29)
Length of Visible Light 16h 59m
Length of Day
15h 40m
Waning Gibbous, 73% of the Moon is Illuminated
May 29
Waning Gibbous
May 31
Last Quarter
Jun 8
New
Jun 16
First Quarter
Jun 23
Full

Hourly Weather History & Observations

Time (CDT) Temp. Dew Point Humidity Pressure Visibility Wind Dir Wind Speed Gust Speed Precip Events Conditions
12:15 AM 53.6 °F 53.6 °F 100% 29.68 in 10.0 mi SSW 3.5 mph - N/A   Clear
12:35 AM 53.6 °F 53.6 °F 100% 29.69 in 10.0 mi Calm Calm - N/A   Clear
12:55 AM 53.6 °F 53.6 °F 100% 29.69 in 10.0 mi Calm Calm - N/A   Clear
1:15 AM 51.8 °F 51.8 °F 100% 29.70 in 10.0 mi Calm Calm - N/A   Clear
1:35 AM 50.0 °F 50.0 °F 100% 29.70 in 8.0 mi Calm Calm - N/A   Clear
1:55 AM 50.0 °F 50.0 °F 100% 29.70 in 9.0 mi Calm Calm - N/A   Clear
2:15 AM 50.0 °F 50.0 °F 100% 29.69 in 6.0 mi Calm Calm - N/A   Clear
2:35 AM 50.0 °F 50.0 °F 100% 29.69 in 7.0 mi Calm Calm - N/A   Clear
2:55 AM 50.0 °F 50.0 °F 100% 29.69 in 7.0 mi Calm Calm - N/A   Clear
3:15 AM 48.2 °F 48.2 °F 100% 29.67 in 5.0 mi Calm Calm - N/A   Clear
3:35 AM 48.2 °F 48.2 °F 100% 29.67 in 5.0 mi Calm Calm - N/A   Clear
3:55 AM 48.2 °F 48.2 °F 100% 29.67 in 5.0 mi Calm Calm - N/A   Clear
4:15 AM 46.4 °F 46.4 °F 100% 29.68 in 5.0 mi Calm Calm - N/A   Clear
4:35 AM 48.2 °F 48.2 °F 100% 29.68 in 5.0 mi Calm Calm - N/A   Clear
4:55 AM 46.4 °F 46.4 °F 100% 29.68 in 1.2 mi Calm Calm - N/A   Clear
5:15 AM 46.4 °F 46.4 °F 100% 29.68 in 3.0 mi Calm Calm - N/A   Clear
5:35 AM 46.4 °F 46.4 °F 100% 29.68 in 4.0 mi Calm Calm - N/A   Clear
5:55 AM 46.4 °F 46.4 °F 100% 29.68 in 2.5 mi Calm Calm - N/A   Clear
6:15 AM 46.4 °F 46.4 °F 100% 29.68 in 4.0 mi Calm Calm - N/A   Clear
6:35 AM 46.4 °F 46.4 °F 100% 29.68 in 2.5 mi Calm Calm - N/A   Clear
6:55 AM 46.4 °F 46.4 °F 100% 29.68 in 2.0 mi Calm Calm - N/A   Mostly Cloudy
7:15 AM 48.2 °F 48.2 °F 100% 29.68 in 3.0 mi Calm Calm - N/A   Overcast
7:35 AM 48.2 °F 48.2 °F 100% 29.69 in 0.2 mi Calm Calm - N/A Fog Fog
7:55 AM 50.0 °F 50.0 °F 100% 29.68 in 0.2 mi NNE 3.5 mph - N/A Fog Fog
8:15 AM 51.8 °F 51.8 °F 100% 29.67 in 2.0 mi North 5.8 mph - N/A   Mostly Cloudy
8:35 AM 53.6 °F 53.6 °F 100% 29.67 in 5.0 mi NNE 4.6 mph - N/A   Partly Cloudy
8:55 AM 55.4 °F 55.4 °F 100% 29.67 in 10.0 mi NNE 5.8 mph - N/A   Clear
9:15 AM 57.2 °F 57.2 °F 100% 29.67 in 10.0 mi ENE 6.9 mph - N/A   Clear
9:35 AM 60.8 °F 57.2 °F 88% 29.68 in 10.0 mi ENE 6.9 mph - N/A   Clear
9:55 AM 60.8 °F 55.4 °F 82% 29.68 in 10.0 mi East 6.9 mph - N/A   Mostly Cloudy
10:15 AM 60.8 °F 55.4 °F 82% 29.68 in 10.0 mi East 9.2 mph - N/A   Overcast
10:35 AM 62.6 °F 55.4 °F 77% 29.67 in 10.0 mi NE 9.2 mph - N/A   Overcast
10:55 AM 64.4 °F 55.4 °F 73% 29.67 in 10.0 mi East 12.7 mph - N/A   Mostly Cloudy
11:15 AM 64.4 °F 55.4 °F 73% 29.67 in 10.0 mi ENE 11.5 mph - N/A   Scattered Clouds
11:35 AM 64.4 °F 55.4 °F 73% 29.67 in 10.0 mi NE 9.2 mph - N/A   Mostly Cloudy
11:55 AM 64.4 °F 55.4 °F 73% 29.68 in 10.0 mi ENE 11.5 mph - N/A   Mostly Cloudy
12:15 PM 64.4 °F 55.4 °F 73% 29.68 in 10.0 mi ENE 11.5 mph - N/A   Mostly Cloudy
12:35 PM 64.4 °F 55.4 °F 73% 29.68 in 10.0 mi East 12.7 mph - N/A   Mostly Cloudy
12:55 PM 64.4 °F 55.4 °F 73% 29.68 in 10.0 mi East 13.8 mph - N/A   Scattered Clouds
1:15 PM 64.4 °F 55.4 °F 73% 29.68 in 10.0 mi East 12.7 mph 17.3 mph N/A   Mostly Cloudy
1:35 PM 64.4 °F 55.4 °F 73% 29.67 in 10.0 mi ENE 15.0 mph - N/A   Scattered Clouds
1:55 PM 64.4 °F 55.4 °F 73% 29.67 in 10.0 mi ENE 11.5 mph 18.4 mph N/A   Clear
2:15 PM 66.2 °F 55.4 °F 68% 29.66 in 10.0 mi ENE 12.7 mph - N/A   Scattered Clouds
2:35 PM 66.2 °F 55.4 °F 68% 29.65 in 10.0 mi East 12.7 mph - N/A   Scattered Clouds
2:55 PM 66.2 °F 53.6 °F 64% 29.65 in 10.0 mi East 11.5 mph - N/A   Scattered Clouds
3:15 PM 66.2 °F 53.6 °F 64% 29.65 in 10.0 mi East 12.7 mph 18.4 mph N/A   Partly Cloudy
3:35 PM 68.0 °F 55.4 °F 64% 29.64 in 10.0 mi ENE 12.7 mph - N/A   Partly Cloudy
3:55 PM 68.0 °F 55.4 °F 64% 29.64 in 10.0 mi ENE 12.7 mph 18.4 mph N/A   Scattered Clouds
4:15 PM 68.0 °F 53.6 °F 60% 29.64 in 10.0 mi ESE 13.8 mph 19.6 mph N/A   Mostly Cloudy
4:35 PM 68.0 °F 53.6 °F 60% 29.64 in 10.0 mi East 13.8 mph 19.6 mph N/A   Scattered Clouds
4:55 PM 68.0 °F 55.4 °F 64% 29.62 in 10.0 mi ENE 13.8 mph 17.3 mph N/A   Mostly Cloudy
5:15 PM 68.0 °F 53.6 °F 60% 29.62 in 10.0 mi East 13.8 mph 17.3 mph N/A   Scattered Clouds
5:35 PM 68.0 °F 53.6 °F 60% 29.61 in 10.0 mi ENE 13.8 mph - N/A   Scattered Clouds
5:55 PM 68.0 °F 53.6 °F 60% 29.62 in 10.0 mi ENE 17.3 mph 20.7 mph N/A   Mostly Cloudy
6:15 PM 69.8 °F 55.4 °F 60% 29.61 in 10.0 mi ENE 13.8 mph - N/A   Scattered Clouds
6:35 PM 68.0 °F 53.6 °F 60% 29.60 in 10.0 mi ENE 13.8 mph 19.6 mph N/A   Clear
6:55 PM 68.0 °F 53.6 °F 60% 29.60 in 10.0 mi ENE 12.7 mph 18.4 mph N/A   Clear
7:15 PM 68.0 °F 53.6 °F 60% 29.60 in 10.0 mi ENE 15.0 mph - N/A   Clear
7:35 PM 68.0 °F 53.6 °F 60% 29.60 in 10.0 mi ENE 16.1 mph 19.6 mph N/A   Clear
7:55 PM 68.0 °F 53.6 °F 60% 29.59 in 10.0 mi ENE 15.0 mph - N/A   Clear
8:15 PM 68.0 °F 51.8 °F 56% 29.59 in 10.0 mi ENE 16.1 mph - N/A   Clear
8:35 PM 66.2 °F 51.8 °F 60% 29.60 in 10.0 mi ENE 13.8 mph 20.7 mph N/A   Scattered Clouds
8:55 PM 64.4 °F 53.6 °F 68% 29.60 in 10.0 mi NE 13.8 mph 18.4 mph N/A   Partly Cloudy
9:15 PM 64.4 °F 53.6 °F 68% 29.60 in 10.0 mi NE 12.7 mph 17.3 mph N/A   Clear
9:35 PM 62.6 °F 53.6 °F 72% 29.60 in 10.0 mi NNE 11.5 mph - N/A   Clear
9:55 PM 62.6 °F 53.6 °F 72% 29.60 in 10.0 mi NNE 12.7 mph - N/A   Clear
10:15 PM 60.8 °F 53.6 °F 77% 29.62 in 10.0 mi NE 12.7 mph - N/A   Clear
10:35 PM 60.8 °F 55.4 °F 82% 29.63 in 10.0 mi NE 15.0 mph 20.7 mph N/A   Clear
10:55 PM 59.0 °F 55.4 °F 88% 29.63 in 10.0 mi NE 12.7 mph 19.6 mph N/A   Clear
11:15 PM 59.0 °F 55.4 °F 88% 29.63 in 10.0 mi NE 12.7 mph - N/A   Partly Cloudy
11:35 PM 57.2 °F 55.4 °F 94% 29.62 in 10.0 mi NE 11.5 mph 16.1 mph N/A   Clear
11:55 PM 57.2 °F 53.6 °F 88% 29.63 in 10.0 mi NE 11.5 mph 18.4 mph N/A   Clear